• In Italy
  • List of Countries
  • For 7 days
  • Water Temperature
  • Satellite Maps
  • Weather Map
  • Weather Widgets
  • user-avatar
    Login

    Hourly Weather Mendoza

    Today, 23 September, Saturday

    Time Temperature Precipitation Wind Pressure Humidity
    00:00 +17°C° 0 mm 2 mps 701 mmHg 30%
    01:00 +17°C° 0 mm 2 mps 700 mmHg 31%
    02:00 +16°C° 0 mm 2 mps 700 mmHg 32%
    03:00 +16°C° 0 mm 2 mps 700 mmHg 32%
    04:00 +15°C° 0 mm 2 mps 699 mmHg 33%
    05:00 +16°C° 0 mm 2 mps 700 mmHg 32%
    06:00 +17°C° 0 mm 2 mps 700 mmHg 31%
    07:00 +18°C° 0 mm 2 mps 700 mmHg 30%
    08:00 +19°C° 0 mm 2 mps 700 mmHg 28%
    09:00 +21°C° 0 mm 3 mps 700 mmHg 26%
    10:00 +24°C° 0 mm 3 mps 700 mmHg 24%
    11:00 +25°C° 0 mm 4 mps 699 mmHg 22%
    12:00 +26°C° 0 mm 5 mps 699 mmHg 21%
    13:00 +27°C° 0 mm 5 mps 698 mmHg 20%
    14:00 +27°C° 0 mm 5 mps 698 mmHg 20%
    15:00 +27°C° 0 mm 5 mps 697 mmHg 20%
    16:00 +27°C° 0 mm 5 mps 697 mmHg 20%
    17:00 +26°C° 0 mm 4 mps 697 mmHg 22%
    18:00 +25°C° 0 mm 3 mps 697 mmHg 25%
    19:00 +23°C° 0 mm 2 mps 698 mmHg 27%
    20:00 +23°C° 0 mm 2 mps 698 mmHg 28%
    21:00 +21°C° 0 mm 2 mps 698 mmHg 29%
    22:00 +20°C° 0 mm 3 mps 698 mmHg 30%
    23:00 +20°C° 0 mm 3 mps 697 mmHg 31%

    Tomorrow, 24 September, Sunday

    Time Temperature Precipitation Wind Pressure Humidity
    00:00 +19°C° 0 mm 3 mps 697 mmHg 31%
    01:00 +18°C° 0 mm 3 mps 697 mmHg 32%
    02:00 +18°C° 0 mm 3 mps 696 mmHg 33%
    03:00 +17°C° 0 mm 3 mps 696 mmHg 35%
    04:00 +17°C° 0 mm 3 mps 696 mmHg 36%
    05:00 +18°C° 0 mm 3 mps 696 mmHg 35%
    06:00 +19°C° 0 mm 3 mps 697 mmHg 34%
    07:00 +19°C° 0 mm 3 mps 697 mmHg 33%
    08:00 +21°C° 0 mm 3 mps 698 mmHg 31%
    09:00 +24°C° 0 mm 3 mps 698 mmHg 29%
    10:00 +25°C° 0 mm 3 mps 698 mmHg 26%
    11:00 +26°C° 0 mm 3 mps 698 mmHg 25%
    12:00 +27°C° 0 mm 3 mps 698 mmHg 23%
    13:00 +28°C° 0 mm 2 mps 697 mmHg 22%
    14:00 +28°C° 0 mm 3 mps 697 mmHg 21%
    15:00 +28°C° 0 mm 3 mps 698 mmHg 21%
    16:00 +28°C° 0 mm 3 mps 698 mmHg 20%
    17:00 +27°C° 0 mm 3 mps 698 mmHg 23%
    18:00 +26°C° 0 mm 2 mps 699 mmHg 25%
    19:00 +25°C° 0 mm 2 mps 699 mmHg 28%
    20:00 +24°C° 0 mm 2 mps 700 mmHg 29%
    21:00 +23°C° 0 mm 2 mps 700 mmHg 31%
    22:00 +23°C° 0 mm 2 mps 700 mmHg 33%
    23:00 +21°C° 0 mm 2 mps 700 mmHg 33%

    Day after tomorrow, 25 September, Monday

    Time Temperature Precipitation Wind Pressure Humidity
    00:00 +21°C° 0 mm 3 mps 700 mmHg 33%
    01:00 +20°C° 0 mm 3 mps 700 mmHg 33%
    02:00 +19°C° 0 mm 4 mps 700 mmHg 33%
    03:00 +19°C° 0 mm 4 mps 700 mmHg 33%
    04:00 +17°C° 0 mm 5 mps 700 mmHg 33%
    05:00 +17°C° 0 mm 5 mps 701 mmHg 33%
    06:00 +17°C° 0 mm 5 mps 701 mmHg 32%
    07:00 +17°C° 0 mm 5 mps 702 mmHg 32%
    08:00 +20°C° 0 mm 5 mps 702 mmHg 32%
    09:00 +21°C° 0 mm 5 mps 701 mmHg 32%
    10:00 +22°C° 0 mm 5 mps 701 mmHg 32%
    11:00 +23°C° 0 mm 5 mps 701 mmHg 33%
    12:00 +25°C° 0 mm 4 mps 700 mmHg 34%
    13:00 +26°C° 0 mm 4 mps 700 mmHg 35%
    14:00 +26°C° 0 mm 4 mps 699 mmHg 36%
    15:00 +26°C° 0 mm 3 mps 699 mmHg 38%
    16:00 +26°C° 0 mm 3 mps 698 mmHg 39%
    17:00 +25°C° 0 mm 3 mps 699 mmHg 44%
    18:00 +24°C° 0 mm 3 mps 699 mmHg 49%
    19:00 +22°C° 0 mm 3 mps 699 mmHg 54%
    20:00 +21°C° 0 mm 4 mps 699 mmHg 55%
    21:00 +21°C° 0 mm 4 mps 699 mmHg 57%
    22:00 +20°C° 0 mm 4 mps 699 mmHg 58%
    23:00 +19°C° 0 mm 4 mps 698 mmHg 56%

    26 September, Tuesday

    Time Temperature Precipitation Wind Pressure Humidity
    00:00 +19°C° 0 mm 4 mps 698 mmHg 54%
    01:00 +18°C° 0 mm 4 mps 698 mmHg 52%
    02:00 +17°C° 0 mm 4 mps 697 mmHg 52%
    03:00 +17°C° 0 mm 4 mps 697 mmHg 52%
    04:00 +15°C° 0 mm 4 mps 697 mmHg 52%
    05:00 +16°C° 0 mm 5 mps 698 mmHg 54%
    06:00 +16°C° 0 mm 5 mps 698 mmHg 57%
    07:00 +16°C° 0 mm 5 mps 698 mmHg 59%
    08:00 +17°C° 0 mm 5 mps 698 mmHg 60%
    09:00 +17°C° 0 mm 5 mps 699 mmHg 60%
    10:00 +19°C° 0 mm 5 mps 699 mmHg 60%
    11:00 +19°C° 0 mm 6 mps 698 mmHg 61%
    12:00 +19°C° 0 mm 6 mps 698 mmHg 62%
    13:00 +18°C° 0 mm 7 mps 698 mmHg 63%
    14:00 +17°C° 0 mm 7 mps 698 mmHg 65%
    15:00 +16°C° 0 mm 6 mps 698 mmHg 67%
    16:00 +15°C° 0 mm 6 mps 698 mmHg 69%
    17:00 +14°C° 0 mm 6 mps 699 mmHg 71%
    18:00 +14°C° 0 mm 5 mps 700 mmHg 74%
    19:00 +13°C° 0 mm 5 mps 700 mmHg 77%
    20:00 +12°C° 0 mm 5 mps 700 mmHg 77%
    21:00 +12°C° 0 mm 4 mps 701 mmHg 78%
    22:00 +12°C° 0 mm 4 mps 701 mmHg 78%
    23:00 +12°C° 0 mm 4 mps 700 mmHg 78%

    27 September, Wednesday

    Time Temperature Precipitation Wind Pressure Humidity
    00:00 +11°C° 0 mm 4 mps 700 mmHg 78%
    01:00 +11°C° 0 mm 4 mps 700 mmHg 78%
    02:00 +11°C° 0 mm 4 mps 700 mmHg 79%
    03:00 +11°C° 0 mm 3 mps 699 mmHg 79%
    04:00 +11°C° 0 mm 3 mps 699 mmHg 79%
    05:00 +11°C° 0.1 mm 3 mps 700 mmHg 78%
    06:00 +11°C° 0.1 mm 3 mps 700 mmHg 77%
    07:00 +13°C° 0.1 mm 2 mps 700 mmHg 76%
    08:00 +13°C° 0 mm 3 mps 700 mmHg 71%
    09:00 +14°C° 0 mm 3 mps 699 mmHg 67%
    10:00 +17°C° 0 mm 3 mps 699 mmHg 62%
    11:00 +18°C° 0 mm 3 mps 699 mmHg 58%
    12:00 +19°C° 0 mm 3 mps 698 mmHg 55%
    13:00 +20°C° 0 mm 3 mps 697 mmHg 52%
    14:00 +20°C° 0 mm 3 mps 697 mmHg 52%
    15:00 +20°C° 0 mm 3 mps 697 mmHg 53%
    16:00 +20°C° 0 mm 3 mps 697 mmHg 53%
    17:00 +20°C° 0 mm 3 mps 697 mmHg 57%
    18:00 +19°C° 0 mm 2 mps 698 mmHg 60%
    19:00 +18°C° 0 mm 2 mps 698 mmHg 63%
    20:00 +18°C° 0 mm 2 mps 698 mmHg 64%
    21:00 +18°C° 0 mm 2 mps 698 mmHg 65%
    22:00 +18°C° 0 mm 2 mps 698 mmHg 66%
    23:00 +17°C° 0 mm 2 mps 698 mmHg 67%

    28 September, Thursday

    Time Temperature Precipitation Wind Pressure Humidity
    00:00 +17°C° 0 mm 2 mps 697 mmHg 67%
    01:00 +16°C° 0 mm 2 mps 697 mmHg 68%
    02:00 +16°C° 0 mm 1 mps 697 mmHg 69%
    03:00 +16°C° 0 mm 1 mps 697 mmHg 70%
    04:00 +16°C° 0 mm 1 mps 697 mmHg 72%
    05:00 +16°C° 0 mm 1 mps 697 mmHg 70%
    06:00 +17°C° 0 mm 2 mps 698 mmHg 67%
    07:00 +18°C° 0 mm 2 mps 698 mmHg 65%
    08:00 +19°C° 0 mm 2 mps 698 mmHg 60%
    09:00 +21°C° 0 mm 2 mps 698 mmHg 55%
    10:00 +22°C° 0 mm 3 mps 698 mmHg 50%
    11:00 +24°C° 0 mm 3 mps 698 mmHg 46%
    12:00 +26°C° 0 mm 3 mps 697 mmHg 42%
    13:00 +27°C° 0 mm 3 mps 697 mmHg 39%
    14:00 +27°C° 0 mm 3 mps 696 mmHg 38%
    15:00 +27°C° 0 mm 3 mps 696 mmHg 37%
    16:00 +27°C° 0 mm 3 mps 696 mmHg 37%
    17:00 +26°C° 0 mm 3 mps 697 mmHg 40%
    18:00 +25°C° 0 mm 2 mps 697 mmHg 43%
    19:00 +24°C° 0 mm 2 mps 697 mmHg 47%
    20:00 +24°C° 0 mm 2 mps 698 mmHg 48%
    21:00 +23°C° 0 mm 2 mps 698 mmHg 49%
    22:00 +23°C° 0 mm 2 mps 698 mmHg 51%
    23:00 +21°C° 0 mm 2 mps 697 mmHg 53%
    Show more